Location: Lancaster
(34.6980°N, 118.1360°W)
Time: 19:15:49
(UTC-07:00)

Hubble Space Telescope - Visible Passes

Search period start: 18 July 2018 00:00
Search period end: 28 July 2018 00:00
Orbit: 537 x 541 km, 28.5° (Epoch: 18 July)

Date Brightness Start Highest point End Pass type
(mag) Time Alt. Az. Time Alt. Az. Time Alt. Az.
18 Jul 1.7 04:07:10 31° S 04:07:10 31° S 04:10:50 10° ESE visible
19 Jul 1.8 03:57:23 31° SSE 03:57:23 31° SSE 04:00:28 10° ESE visible
20 Jul 2.1 03:47:41 27° SE 03:47:41 27° SE 03:50:06 10° ESE visible
20 Jul 1.9 05:23:39 10° WSW 05:27:10 27° S 05:30:40 10° SE visible
21 Jul 2.6 03:38:06 20° SE 03:38:06 20° SE 03:39:42 10° ESE visible
21 Jul 2.0 05:13:28 10° WSW 05:16:44 24° SSW 05:20:05 10° SE visible
22 Jul 3.2 03:28:39 13° ESE 03:28:39 13° ESE 03:29:17 10° ESE visible
22 Jul 2.2 05:04:02 14° SW 05:06:18 21° SSW 05:09:27 10° SE visible
23 Jul 2.3 04:54:46 16° SW 04:55:51 18° SSW 04:58:42 10° SSE visible
24 Jul 2.6 04:45:42 15° SSW 04:45:42 15° SSW 04:47:50 10° SSE visible
27 Jul 2.7 21:18:11 10° SSW 21:19:38 14° S 21:19:38 14° S visible
